Regional Weather Roundup
Issued by NWS

Home | Current Version | Previous Version | Text Only | Print | Product List | Glossary On
Versions: 1 2 3 4 5 6 7 8 9 10 11 12 13 14 15 16 17 18 19 20 21 22 23 24 25 26 27 28 29 30 31 32 33 34 35 36 37 38 39 40 41 42 43 44 45 46 47 48 49 50
000
ASUS44 KOUN 240810
RWROK

WEATHER ROUNDUP FOR OKLAHOMA
NATIONAL WEATHER SERVICE NORMAN OK
300 AM CDT THU JUL 24 2014

NOTE: "FAIR" INDICATES FEW OR NO CLOUDS BELOW 12,000 FEET WITH NO
      SIGNIFICANT WEATHER AND/OR OBSTRUCTIONS TO VISIBILITY.

OKZ001>007-009>012-014-015-017-240900-
NORTHWEST OKLAHOMA AND THE PANHANDLE

CITY           SKY/WX    TMP DP  RH WIND       PRES   REMARKS
GAGE           CLEAR     76  73  91 CALM      30.12F FOG
ENID/WOODRING  CLEAR     70  70 100 NE3       30.06F
$$

OKZ016-021>023-033>039-044-045-240900-
SOUTHWEST OKLAHOMA

CITY           SKY/WX    TMP DP  RH WIND       PRES   REMARKS
LAWTON/REGL    MOCLDY    77  68  73 E3        30.05F
LAWTON/FT SILL MOCLDY    76  68  78 SE3       30.05F
FREDERICK      MOCLDY    77  72  84 E8        30.03F
CLINTON        CLEAR     78  70  76 SE7       30.11F
HOBART         PTCLDY    77  70  79 SE8       30.08F
ALTUS AFB      CLEAR     77  73  88 SE5       30.06F
$$

OKZ018>020-024>031-240900-
CENTRAL OKLAHOMA

CITY           SKY/WX    TMP DP  RH WIND       PRES   REMARKS
OKLAHOMA CITY  MOCLDY    75  65  70 CALM      30.06F
OKC/WILEY POST MOCLDY    75  67  76 CALM      30.06F
OKC/TINKER AFB MOCLDY    75  65  71 N2        30.06F
STILLWATER     PTCLDY    69  67  93 N3        30.06F
GUTHRIE        MOCLDY    72  69  90 NE5       30.07S
$$

OKZ008-013-054>072-240900-
NORTHEAST OKLAHOMA

CITY           SKY/WX    TMP DP  RH WIND       PRES   REMARKS
TULSA          PTCLDY    69  68  96 W3        30.04F
TULSA/JONES    PTCLDY    69  69 100 CALM      30.04F
PONCA CITY     CLEAR     70  68  93 CALM      30.08S
BARTLESVILLE   CLEAR     66  66 100 CALM      30.07S FOG
MUSKOGEE       CLOUDY    67  66  97 CALM      30.04F FOG
$$

OKZ032-040>043-046>053-073>077-240900-
SOUTH CENTRAL/SOUTHEAST OKLAHOMA

CITY           SKY/WX    TMP DP  RH WIND       PRES   REMARKS
ARDMORE/DWNTWN PTCLDY    72  68  88 CALM      30.03F
MCALESTER      MOCLDY    70  68  93 N7        30.03F
$$



USA.gov is the U.S. government's official web portal to all federal, state and local government web resources and services.